Location: Rio Negrinho
(26.2394°S, 49.4999°W)
Time: 06:32:19
(UTC+00:00)

X-37B - Visible Passes

Search period start: 02 August 2021 00:00
Search period end: 12 August 2021 00:00
Orbit: 383 x 392 km, 45.0° (Epoch: 01 July)

Date Brightness Start Highest point End Pass type
(mag) Time Alt. Az. Time Alt. Az. Time Alt. Az.
07 Aug 1.8 21:56:35 10° SSW 21:59:21 26° SE 21:59:27 26° SE visible
08 Aug 1.8 22:34:30 10° WSW 22:36:57 41° W 22:36:57 41° W visible
09 Aug 0.6 21:36:07 10° SW 21:39:18 59° SE 21:42:22 11° ENE visible
10 Aug 3.2 22:14:56 10° W 22:17:24 20° NW 22:19:50 10° N visible
